When you browse on this site, cookies collect data to enhance your experience and personalize the content and advertising you see.
Visit our Privacy Policy to learn more. By continuing to use the site, you agree to this use of cookies and data.
  • In Latvia
  • List of Countries
  • For 7 days
  • Water Temperature
  • Weather Map
  • Weather Widgets
  • user-avatar
    Login

    Hourly Weather Kuldiga

    Today, 17 September, Tuesday

    Time Temperature Precipitation Wind Pressure Humidity
    00:00 +8°C° 0.3 mm 4 mps 748 mmHg 88%
    01:00 +8°C° 0 mm 4 mps 748 mmHg 89%
    02:00 +8°C° 0.3 mm 4 mps 748 mmHg 89%
    03:00 +8°C° 0.3 mm 4 mps 748 mmHg 89%
    04:00 +9°C° 0.3 mm 3 mps 748 mmHg 90%
    05:00 +9°C° 0.1 mm 3 mps 748 mmHg 89%
    06:00 +9°C° 0.1 mm 3 mps 748 mmHg 87%
    07:00 +10°C° 0.1 mm 3 mps 747 mmHg 86%
    08:00 +11°C° 0.2 mm 3 mps 747 mmHg 81%
    09:00 +12°C° 0.2 mm 3 mps 747 mmHg 76%
    10:00 +13°C° 0.2 mm 3 mps 746 mmHg 71%
    11:00 +13°C° 0.7 mm 3 mps 746 mmHg 74%
    12:00 +12°C° 0.7 mm 3 mps 746 mmHg 77%
    13:00 +12°C° 0.7 mm 3 mps 745 mmHg 81%
    14:00 +11°C° 0.9 mm 3 mps 745 mmHg 82%
    15:00 +12°C° 0.9 mm 2 mps 744 mmHg 84%
    16:00 +11°C° 0.9 mm 1 mps 744 mmHg 86%
    17:00 +9°C° 0.5 mm 2 mps 744 mmHg 88%
    18:00 +8°C° 0.5 mm 2 mps 744 mmHg 91%
    19:00 +8°C° 0.5 mm 2 mps 744 mmHg 93%
    20:00 +7°C° 0.1 mm 2 mps 744 mmHg 94%
    21:00 +7°C° 0.1 mm 2 mps 744 mmHg 94%
    22:00 +7°C° 0.1 mm 2 mps 744 mmHg 95%
    23:00 +7°C° 0.1 mm 2 mps 744 mmHg 94%

    Tomorrow, 18 September, Wednesday

    Time Temperature Precipitation Wind Pressure Humidity
    00:00 +7°C° 0.1 mm 3 mps 745 mmHg 94%
    01:00 +7°C° 0.1 mm 3 mps 745 mmHg 94%
    02:00 +7°C° 0 mm 3 mps 746 mmHg 93%
    03:00 +5°C° 0 mm 3 mps 746 mmHg 93%
    04:00 +6°C° 0 mm 2 mps 747 mmHg 92%
    05:00 +7°C° 0 mm 2 mps 747 mmHg 91%
    06:00 +8°C° 0 mm 2 mps 748 mmHg 89%
    07:00 +9°C° 0 mm 2 mps 749 mmHg 88%
    08:00 +10°C° 0.4 mm 3 mps 749 mmHg 85%
    09:00 +10°C° 0.4 mm 3 mps 750 mmHg 83%
    10:00 +11°C° 0.4 mm 4 mps 750 mmHg 80%
    11:00 +11°C° 0.6 mm 4 mps 751 mmHg 81%
    12:00 +10°C° 0.6 mm 5 mps 751 mmHg 81%
    13:00 +10°C° 0.6 mm 5 mps 751 mmHg 82%
    14:00 +10°C° 0.5 mm 5 mps 752 mmHg 84%
    15:00 +10°C° 0.5 mm 5 mps 753 mmHg 85%
    16:00 +9°C° 0.5 mm 5 mps 753 mmHg 87%
    17:00 +8°C° 0.2 mm 5 mps 753 mmHg 88%
    18:00 +8°C° 0.2 mm 4 mps 754 mmHg 90%
    19:00 +8°C° 0.2 mm 3 mps 754 mmHg 92%
    20:00 +8°C° 0.4 mm 3 mps 754 mmHg 93%
    21:00 +8°C° 0.4 mm 3 mps 755 mmHg 94%
    22:00 +8°C° 0.4 mm 3 mps 755 mmHg 95%
    23:00 +8°C° 0.6 mm 2 mps 755 mmHg 95%

    Day after tomorrow, 19 September, Thursday

    Time Temperature Precipitation Wind Pressure Humidity
    00:00 +7°C° 0.6 mm 2 mps 755 mmHg 94%
    01:00 +8°C° 0.6 mm 1 mps 756 mmHg 93%
    02:00 +8°C° 0.1 mm 1 mps 756 mmHg 94%
    03:00 +8°C° 0.1 mm 1 mps 756 mmHg 94%
    04:00 +7°C° 0.1 mm 1 mps 756 mmHg 94%
    05:00 +8°C° 0.3 mm 1 mps 756 mmHg 93%
    06:00 +8°C° 0.3 mm 2 mps 757 mmHg 93%
    07:00 +8°C° 0.3 mm 2 mps 757 mmHg 92%
    08:00 +9°C° 0.5 mm 3 mps 757 mmHg 89%
    09:00 +10°C° 0.5 mm 4 mps 758 mmHg 85%
    10:00 +11°C° 0.5 mm 4 mps 758 mmHg 82%
    11:00 +10°C° 0.5 mm 5 mps 758 mmHg 80%
    12:00 +10°C° 0.5 mm 6 mps 759 mmHg 79%
    13:00 +10°C° 0.5 mm 6 mps 759 mmHg 77%
    14:00 +9°C° 0.2 mm 6 mps 759 mmHg 76%
    15:00 +9°C° 0.2 mm 5 mps 760 mmHg 75%
    16:00 +8°C° 0.2 mm 5 mps 760 mmHg 74%
    17:00 +7°C° 0.1 mm 4 mps 760 mmHg 77%
    18:00 +6°C° 0.1 mm 4 mps 760 mmHg 80%
    19:00 +5°C° 0.1 mm 3 mps 761 mmHg 82%
    20:00 +5°C° 0 mm 3 mps 761 mmHg 81%
    21:00 +4°C° 0 mm 3 mps 761 mmHg 80%
    22:00 +4°C° 0 mm 3 mps 761 mmHg 78%
    23:00 +4°C° 0 mm 3 mps 761 mmHg 78%

    20 September, Friday

    Time Temperature Precipitation Wind Pressure Humidity
    00:00 +4°C° 0 mm 3 mps 761 mmHg 77%
    01:00 +5°C° 0 mm 4 mps 761 mmHg 77%
    02:00 +5°C° 0 mm 3 mps 761 mmHg 79%
    03:00 +5°C° 0 mm 3 mps 761 mmHg 81%
    04:00 +5°C° 0 mm 3 mps 761 mmHg 83%
    05:00 +5°C° 0 mm 3 mps 761 mmHg 82%
    06:00 +7°C° 0 mm 3 mps 761 mmHg 80%
    07:00 +7°C° 0 mm 3 mps 762 mmHg 79%
    08:00 +8°C° 0 mm 3 mps 762 mmHg 72%
    09:00 +9°C° 0 mm 3 mps 763 mmHg 66%
    10:00 +10°C° 0 mm 3 mps 763 mmHg 60%
    11:00 +11°C° 0 mm 3 mps 763 mmHg 57%
    12:00 +11°C° 0 mm 3 mps 763 mmHg 54%
    13:00 +11°C° 0 mm 3 mps 763 mmHg 51%
    14:00 +12°C° 0 mm 2 mps 763 mmHg 53%
    15:00 +10°C° 0 mm 2 mps 763 mmHg 56%
    16:00 +10°C° 0 mm 2 mps 763 mmHg 58%
    17:00 +10°C° 0 mm 1 mps 763 mmHg 63%
    18:00 +8°C° 0 mm 1 mps 764 mmHg 69%
    19:00 +6°C° 0 mm 0 mps 764 mmHg 74%
    20:00 +6°C° 0 mm 0 mps 764 mmHg 74%
    21:00 +7°C° 0 mm 1 mps 764 mmHg 73%
    22:00 +7°C° 0 mm 1 mps 764 mmHg 73%
    23:00 +7°C° 0 mm 1 mps 763 mmHg 73%

    21 September, Saturday

    Time Temperature Precipitation Wind Pressure Humidity
    00:00 +7°C° 0 mm 2 mps 763 mmHg 73%
    01:00 +7°C° 0 mm 2 mps 763 mmHg 72%
    02:00 +7°C° 0 mm 2 mps 763 mmHg 73%
    03:00 +7°C° 0 mm 2 mps 763 mmHg 74%
    04:00 +7°C° 0 mm 2 mps 763 mmHg 74%
    05:00 +7°C° 0 mm 2 mps 763 mmHg 76%
    06:00 +8°C° 0 mm 2 mps 763 mmHg 78%
    07:00 +8°C° 0 mm 2 mps 763 mmHg 79%
    08:00 +10°C° 0 mm 2 mps 763 mmHg 77%
    09:00 +13°C° 0 mm 2 mps 763 mmHg 76%
    10:00 +14°C° 0 mm 2 mps 764 mmHg 74%
    11:00 +15°C° 0 mm 2 mps 764 mmHg 70%
    12:00 +16°C° 0 mm 3 mps 763 mmHg 67%
    13:00 +17°C° 0 mm 3 mps 763 mmHg 63%
    14:00 +16°C° 0 mm 3 mps 763 mmHg 67%
    15:00 +14°C° 0 mm 3 mps 763 mmHg 71%
    16:00 +14°C° 0 mm 3 mps 763 mmHg 75%
    17:00 +14°C° 0 mm 2 mps 763 mmHg 82%
    18:00 +12°C° 0 mm 2 mps 763 mmHg 89%
    19:00 +11°C° 0 mm 1 mps 764 mmHg 95%
    20:00 +11°C° 0 mm 1 mps 764 mmHg 96%
    21:00 +10°C° 0 mm 2 mps 764 mmHg 96%
    22:00 +10°C° 0 mm 2 mps 764 mmHg 96%
    23:00 +10°C° 0 mm 2 mps 764 mmHg 97%

    22 September, Sunday

    Time Temperature Precipitation Wind Pressure Humidity
    00:00 +10°C° 0 mm 2 mps 764 mmHg 97%
    01:00 +10°C° 0 mm 2 mps 764 mmHg 97%
    02:00 +10°C° 0 mm 2 mps 764 mmHg 97%
    03:00 +10°C° 0 mm 2 mps 764 mmHg 97%
    04:00 +10°C° 0 mm 2 mps 764 mmHg 98%
    05:00 +12°C° 0 mm 2 mps 764 mmHg 96%
    06:00 +12°C° 0 mm 3 mps 763 mmHg 95%
    07:00 +13°C° 0 mm 3 mps 763 mmHg 93%
    08:00 +14°C° 0 mm 3 mps 764 mmHg 86%
    09:00 +17°C° 0 mm 3 mps 764 mmHg 80%
    10:00 +18°C° 0 mm 4 mps 764 mmHg 73%
    11:00 +19°C° 0 mm 4 mps 764 mmHg 71%
    12:00 +19°C° 0 mm 4 mps 764 mmHg 69%
    13:00 +19°C° 0 mm 4 mps 764 mmHg 67%
    14:00 +19°C° 0 mm 4 mps 764 mmHg 69%
    15:00 +18°C° 0 mm 4 mps 764 mmHg 72%
    16:00 +17°C° 0 mm 3 mps 764 mmHg 74%
    17:00 +14°C° 0 mm 3 mps 764 mmHg 81%
    18:00 +13°C° 0 mm 3 mps 764 mmHg 88%
    19:00 +12°C° 0 mm 2 mps 764 mmHg 96%
    20:00 +12°C° 0 mm 2 mps 763 mmHg 95%
    21:00 +11°C° 0 mm 3 mps 763 mmHg 94%
    22:00 +11°C° 0 mm 3 mps 763 mmHg 93%
    23:00 +11°C° 0 mm 3 mps 763 mmHg 91%
    Show more